Warning: Javascript must be enabled to use all the features on this page!


Page Loading - Please Wait...

Click to hideNews Bulletins

Peak Streamflow for the Nation

USGS 01387400 RAMAPO RIVER AT RAMAPO NY

Rockland County, New York
Hydrologic Unit Code 02030103
Latitude  41°08'25", Longitude  74°10'07" NAD83
Drainage area 86.9  square miles
Gage datum 295.78 feet above NAVD88
Output formats
Table
Graph
Tab-separated file
peakfq (watstore) format
Reselect output format
Water
Year
Date Gage
Height
(feet)
Stream-
flow
(cfs)
1936 1936-03-12   6,1005,7
1980 1980-03-22 9.89 5,0805
1981 1981-02-21 6.92 2,4105
1982 1982-01-05 6.47 1,9805
1983 1983-03-19 8.02 3,4005
1984 1984-04-05 13.82 10,7005
1985 1985-09-28 5.60 1,8405
1986 1986-08-02 5.93 2,0705
1987 1987-04-04 9.49 5,2905
1988 1987-10-28 4.68 1,2805
1989 1989-05-17 8.00 3,7905
1990 1989-10-21 7.25 3,1205
1991 1990-12-04 6.07 2,1005
1992 1992-03-27 5.37 1,5605
1993 1993-03-29 5.72 1,9405
1994 1993-11-29 5.59 1,8505
1995 1995-03-09 4.99 1,4705
1996 1996-01-20 8.34 4,1205
1997 1996-10-20 7.01 2,9205
1998 1998-05-11 6.26 2,3205
1999 1999-09-16 12.80 9,3005,9
2000 2000-06-07 4.88 1,4005
2001 2001-03-22 5.93 2,0805
2002 2002-05-14 4.25 1,0205
2003 2003-03-21 6.13 2,2205
2004 2003-12-12 7.43 3,2805
2005 2005-04-03 9.12 4,9005
2006 2005-10-13 8.75 4,4905
2007 2007-04-16 10.34 6,2005
2008 2008-03-09 6.16 2,1805
2009 2008-12-12 6.50 2,4505
2010 2010-03-14 11.47 7,5605
2011 2011-08-28 15.75 13,7005,9
2012 2011-12-08 6.68 2,0505
2013 2012-12-21 6.93 2,3605
2014 2014-05-01 6.30 1,8805
2015 2014-12-10 4.68 8205
2016 2016-02-25 6.35 2,1005
2017 2017-04-01 4.85 9505
2018 2018-04-17 5.41 1,3305
2019 2018-11-03 7.28 3,1905
?
  Peak Streamflow Qualification Codes.